Regional Weather Roundup
Issued by NWS

Home | Current Version | Previous Version | Text Only | Print | Product List | Glossary Off
Versions: 1 2 3 4 5 6 7 8 9 10 11 12 13 14 15 16 17 18 19 20 21 22 23 24 25 26 27 28 29 30 31 32 33 34 35 36 37 38 39 40 41 42 43 44 45 46 47 48 49 50

000
ASUS43 KMKX 051500
RWRWI

WISCONSIN REGIONAL WEATHER ROUNDUP
NATIONAL WEATHER SERVICE MILWAUKEE/SULLIVAN WI
1000 AM CDT SUN JUL 05 2015

NOTE: "FAIR" INDICATES FEW OR NO CLOUDS BELOW 12,000 FEET WITH NO
SIGNIFICANT WEATHER AND/OR OBSTRUCTIONS TO VISIBILITY.

WIZ001-002-006>008-014>016-023>028-051600-
NORTHWEST WISCONSIN

CITY           SKY/WX    TMP DP  RH WIND       PRES   REMARKS
SUPERIOR ARPT  MOSUNNY   70  63  80 S6        29.89F
ASHLAND        PTSUNNY   74  64  71 SW14      29.92F
HAYWARD        PTSUNNY   75  62  64 SW13G18   29.95F
SIREN          PTSUNNY   74  60  61 SW9       29.93F
CUMBERLAND     MOSUNNY   70  61  73 S10       29.97F
RICE LAKE      MOSUNNY   73  61  65 S9        29.99F
CHETEK         MOSUNNY   74  64  69 S5        29.99S
LADYSMITH      MOSUNNY   73  64  72 S9        30.02S
EAU CLAIRE     MOSUNNY   76  62  62 S12       29.98F
MENOMONIE      MOSUNNY   74  63  68 S9        29.99F
NEW RICHMOND   PTSUNNY   73  61  65 S12G17    29.95F
OSCEOLA        PTSUNNY   73  63  69 S9G17     29.96F
$$

WIZ003>005-009-010-017-018-051600-
NORTH CENTRAL WISCONSIN

CITY           SKY/WX    TMP DP  RH WIND       PRES   REMARKS
MANITOWISH WTR PTSUNNY   71  63  76 SW8G20    30.01S
ARBOR VITAE    MOSUNNY   72  63  72 SW10      30.01F
WOODRUFF       MOSUNNY   72  63  72 SW10      30.01F
RHINELANDER    SUNNY     74  61  63 SW10      30.04F
EAGLE RIVER    SUNNY     72  61  68 S7        30.02F
LAND O LAKES   SUNNY     74  62  65 SW8       30.02F
PHILLIPS       PTSUNNY   73  63  71 S8        30.00F
TOMAHAWK       SUNNY     71  62  73 CALM      30.04F
MEDFORD        SUNNY     71  62  73 SW9       30.03F
MERRILL        SUNNY     73  64  73 SW8       30.05S
$$

WIZ029-030-035-036-043>047-051600-
CENTRAL WISCONSIN

CITY           SKY/WX    TMP DP  RH WIND       PRES   REMARKS
WAUSAU         SUNNY     75  62  64 SW8       30.02S
MOSINEE        SUNNY     73  64  73 SW10      30.05R
MARSHFIELD     SUNNY     74  61  63 SW10      30.03F
STEVENS POINT  SUNNY     72  61  67 SW10      30.05R
WAUPACA        SUNNY     76  65  67 S6        30.04F
WAUTOMA        NOT AVBL
WISC RAPIDS    SUNNY     74  61  63 S7        30.05S
CAMP DOUGLAS   NOT AVBL
$$

WIZ011>013-019>022-031-037>040-048>050-051600-
NORTHEAST WISCONSIN

CITY           SKY/WX    TMP DP  RH WIND       PRES   REMARKS
ANTIGO         SUNNY     72  64  76 W12       30.06R
SHAWANO        SUNNY     76  64  65 SW3       30.04S
OCONTO         SUNNY     75  65  69 S6        30.03F
STURGEON BAY   SUNNY     73  63  68 S7        30.07S
GREEN BAY      SUNNY     77  64  64 SW8       30.04F
MANITOWOC      NOT AVBL
APPLETON       SUNNY     73  61  64 SW7       30.06S
CLINTONVILLE   SUNNY     75  61  60 SW6       30.04R
OSHKOSH        SUNNY     75  64  68 S8        30.04F
$$

WIZ032>034-041-042-053>061-051600-
SOUTHWEST WISCONSIN

CITY           SKY/WX    TMP DP  RH WIND       PRES   REMARKS
LA CROSSE      SUNNY     75  63  66 S8        30.01S
SPARTA         SUNNY     75  61  60 SW7       30.03F
VIROQUA        SUNNY     73  63  69 SW10G16   30.05S
BOSCOBEL       SUNNY     76  65  68 CALM      30.03F
PRAIRIE DU CHI SUNNY     73  63  69 S3        30.03S
PLATTEVILLE    SUNNY     73  66  78 S7        30.06F
$$

WIZ056-057-062-063-064-067-068-051600-
SOUTH CENTRAL WISCONSIN

CITY           SKY/WX    TMP DP  RH WIND       PRES   REMARKS
REEDSBURG      SUNNY     73  64  74 S9        30.05S
BARABOO/DELLS  SUNNY     73  61  65 SW12      30.06S
LONE ROCK      NOT AVBL
MINERAL POINT  SUNNY     73  64  73 S6        30.07S
MADISON        MOSUNNY   76  61  59 SW8       30.05F
MIDDLETON      SUNNY     76  62  62 SW7       30.07S
WATERTOWN      SUNNY     73  66  80 SW5       30.07S
MONROE         SUNNY     72  63  73 S8        30.07F
JANESVILLE     SUNNY     75  63  64 S6        30.07F
$$

WIZ051-052-058>065-066-070>072-051600-
SOUTHEAST WISCONSIN

CITY           SKY/WX    TMP DP  RH WIND       PRES   REMARKS
MILWAUKEE      MOSUNNY   77  59  53 VRB6      30.07F
WAUKESHA       SUNNY     73  61  64 SW7       30.09F
MILWAUKEE/TIMM SUNNY     75  57  53 W8        30.08F
RACINE         SUNNY     77  60  55 SW6       30.09F
BURLINGTON     SUNNY     72  62  72 CALM      30.09S
KENOSHA        SUNNY     77  62  59 W7        30.09S
FOND DU LAC    SUNNY     75  63  66 SW7       30.06F
SHEBOYGAN      SUNNY     76  63  64 SW7       30.06F
WEST BEND      SUNNY     75  61  60 SW5       30.07F
JUNEAU         SUNNY     72  63  74 SW7       30.08F
$$

LSZ147-162-051600-
LAKE SUPERIOR

STATION/POSITION TIME  TEMP    WIND        PRES    WAVE
                       AIR SEA DIR/SP/G            HT/PER
                 (UTC) (F)     (DEG/KT/KT) (MB)    (FT/S)
W MID LAKE BUOY  1350   52 39  220/ 14/ 16 1013.1R   1
DEVILS ISLAND    1400   60     240/  2/  4 1012.9S
SAXON HARBOR     1400   72     200/  7/ 11 1013.5S
$$

LMZ867-665-643>646-051600-
LAKE MICHIGAN

STATION/POSITION TIME  TEMP    WIND        PRES    WAVE
                       AIR SEA DIR/SP/G            HT/PER
                 (UTC) (F)     (DEG/KT/KT) (MB)    (FT/S)
CHAMBERS ISLAND  1400   69     170/  6/  9 1016.9F
N MID LAKE BUOY  1350   52 45  190/  8/  8 1017.9S   1
NORTHPORT PIER   1400   63     150/  6/  9 1017.3S
SISTER BAY       1314   69     160/  6/  7   N/A
ALGOMA LAKESHORE 1356          200/  4/  5   N/A
KEWAUNEE LAKESHO 1400   63     170/  7/  9 1017.2S
SHEBOYGAN LAKESH 1400   68     170/  7/  8 1018.4S
PORT WASHINGTON  1400   67     160/  4/  6 1019.0S
ATWATER BUOY     1400   63 60  140/  6/  6 1019.7F
MILWAUKEE LAKESH 1400   66      90/  3/  4   N/A
KENOSHA   LAKESH 1400   66     170/  6/  7 1018.6S
$$

TC  - TEMPERATURE IN CELSIUS
VSB - VISIBILITY IN STATUTE MILES
WCI - WIND CHILL INDEX
HX  - HEAT INDEX



USA.gov is the U.S. government's official web portal to all federal, state and local government web resources and services.